{"data":{"norad_id":52366,"intl_designator":"2022-045AM","name":"STARLINK-3808","alt_names":[],"object_type":"PAYLOAD","status":"ACTIVE","operator":null,"country":"US","launch_date":"2022-04-29","launch_site_code":"AFETR","launch_vehicle":null,"mission":null,"orbit_class":"UNKNOWN","rcs_meters":null,"size_class":null,"mass_kg":null,"dimensions":null,"purposes":["comms"],"wikipedia_slug":null,"has_3d_model":false,"image_url":null,"decayed_at":null,"tle_current":{"epoch":"2026-05-25T03:34:58.751040Z","epoch_age_seconds":65450,"freshness":"FRESH","line1":"1 52366U 22045AM  26145.14929110 -.00000403  00000+0 -72275-5 0  9996","line2":"2 52366  53.2122 205.8800 0001197  88.6735 271.4394 15.08836151227466","mean_motion":15.08836151,"eccentricity":0.0001197,"inclination_deg":53.2122,"raan_deg":205.88,"arg_perigee_deg":88.6735,"mean_anomaly_deg":271.4394,"bstar":-7.2275e-6,"rev_number":22746,"period_min":95.437798136373,"perigee_km":538.92708215148,"apogee_km":540.58322553311,"semimajor_km":6917.8921538423,"source":"CELESTRAK","updated_at":"2026-05-25T13:38:17.119680Z"}}}